| time (UTC) | temp F | wind direction | speed MPH | gust MPH | rain 1hr in | rain 24hr in | rain mn in | humidity % | barometer mb |
| 20260906193102 | 58 | 89 | 10.0 | 20.0 | 0.00 | 0.00 | 0.00 | 74 | 1016.3 |
| 20260906191551 | 59 | 115 | 10.0 | 23.0 | 0.00 | 0.00 | 0.00 | 74 | 1016.2 |
| 20260906190049 | 59 | 113 | 9.0 | 19.0 | 0.00 | 0.00 | 0.00 | 73 | 1016.0 |
| 20260906184559 | 59 | 109 | 7.0 | 21.0 | 0.00 | 0.00 | 0.00 | 72 | 1015.8 |
| 20260906183056 | 59 | 112 | 12.0 | 24.0 | 0.00 | 0.00 | 0.00 | 72 | 1015.7 |
| 20260906181544 | 60 | 107 | 11.0 | 26.0 | 0.00 | 0.00 | 0.00 | 71 | 1015.6 |
| 20260906180042 | 60 | 112 | 8.0 | 17.0 | 0.00 | 0.00 | 0.00 | 71 | 1015.4 |
| 20260906174539 | 61 | 110 | 10.0 | 24.0 | 0.00 | 0.00 | 0.00 | 70 | 1015.1 |
| 20260906173031 | 61 | 123 | 10.0 | 18.0 | 0.00 | 0.00 | 0.00 | 69 | 1014.8 |
| 20260906171530 | 62 | 117 | 7.0 | 23.0 | 0.00 | 0.00 | 0.00 | 69 | 1014.3 |
| 20260906170024 | 62 | 104 | 9.0 | 20.0 | 0.00 | 0.00 | 0.00 | 68 | 1014.1 |
| 20260906164536 | 62 | 89 | 10.0 | 17.0 | 0.00 | 0.00 | 0.00 | 67 | 1014.0 |
| 20260906163031 | 63 | 94 | 11.0 | 19.0 | 0.00 | 0.00 | 0.00 | 66 | 1013.9 |
| 20260906161518 | 63 | 116 | 6.0 | 18.0 | 0.00 | 0.00 | 0.00 | 64 | 1013.7 |
| 20260906154513 | 65 | 101 | 7.0 | 13.0 | 0.00 | 0.00 | 0.00 | 61 | 1013.4 |
| 20260906153007 | 66 | 100 | 7.0 | 15.0 | 0.00 | 0.00 | 0.00 | 59 | 1013.3 |
| 20260906151501 | 67 | 106 | 4.0 | 12.0 | 0.00 | 0.00 | 0.00 | 56 | 1013.2 |
| 20260906150105 | 68 | 80 | 3.0 | 10.0 | 0.00 | 0.00 | 0.00 | 53 | 1013.1 |
| 20260906144611 | 69 | 117 | 0.0 | 8.0 | 0.00 | 0.00 | 0.00 | 51 | 1013.0 |
| 20260906143055 | 70 | 117 | 1.0 | 11.0 | 0.00 | 0.00 | 0.00 | 50 | 1013.0 |
| 20260906141552 | 71 | 128 | 0.0 | 5.0 | 0.00 | 0.00 | 0.00 | 48 | 1012.8 |
| 20260906140052 | 71 | 128 | 0.0 | 7.0 | 0.00 | 0.00 | 0.00 | 47 | 1012.7 |
| 20260906134547 | 71 | 147 | 0.0 | 3.0 | 0.00 | 0.00 | 0.00 | 46 | 1012.7 |
| 20260906133045 | 72 | 146 | 0.0 | 6.0 | 0.00 | 0.00 | 0.00 | 46 | 1012.7 |
| 20260906131545 | 72 | 159 | 0.0 | 5.0 | 0.00 | 0.00 | 0.00 | 45 | 1012.5 |
| 20260906130048 | 72 | 194 | 0.0 | 5.0 | 0.00 | 0.00 | 0.00 | 45 | 1012.7 |
| 20260906124545 | 72 | 105 | 0.0 | 8.0 | 0.00 | 0.00 | 0.00 | 44 | 1012.6 |
| 20260906123042 | 73 | 182 | 0.0 | 9.0 | 0.00 | 0.00 | 0.00 | 44 | 1012.5 |
| 20260906121541 | 73 | 159 | 0.0 | 3.0 | 0.00 | 0.00 | 0.00 | 46 | 1012.6 |
| 20260906120047 | 73 | 191 | 0.0 | 5.0 | 0.00 | 0.00 | 0.00 | 45 | 1012.6 |
| 20260906114540 | 0 | 0.0 | 0.0 | 0.00 | 0.00 | 0.00 | 1012.8 | ||
| 20260906111512 | 74 | 207 | 0.0 | 6.0 | 0.00 | 0.00 | 0.00 | 39 | 1013.3 |
| 20260906110015 | 74 | 190 | 0.0 | 8.0 | 0.00 | 0.00 | 0.00 | 40 | 1013.5 |
| 20260906104516 | 73 | 118 | 0.0 | 8.0 | 0.00 | 0.00 | 0.00 | 38 | 1014.0 |
| 20260906103010 | 73 | 91 | 0.0 | 10.0 | 0.00 | 0.00 | 0.00 | 38 | 1014.1 |
| 20260906101505 | 75 | 177 | 0.0 | 7.0 | 0.00 | 0.00 | 0.00 | 38 | 1014.3 |
| 20260906100003 | 74 | 176 | 1.0 | 7.0 | 0.00 | 0.00 | 0.00 | 41 | 1014.5 |
| 20260906094642 | 74 | 156 | 0.0 | 8.0 | 0.00 | 0.00 | 0.00 | 40 | 1014.6 |
| 20260906093106 | 74 | 115 | 0.0 | 7.0 | 0.00 | 0.00 | 0.00 | 39 | 1014.9 |
| 20260906091555 | 73 | 161 | 0.0 | 9.0 | 0.00 | 0.00 | 0.00 | 40 | 1015.1 |
| 20260906090053 | 73 | 151 | 0.0 | 6.0 | 0.00 | 0.00 | 0.00 | 38 | 1015.5 |
| 20260906084551 | 73 | 144 | 1.0 | 9.0 | 0.00 | 0.00 | 0.00 | 37 | 1015.5 |
| 20260906083046 | 71 | 106 | 0.0 | 7.0 | 0.00 | 0.00 | 0.00 | 41 | 1015.6 |
| 20260906081551 | 69 | 86 | 0.0 | 4.0 | 0.00 | 0.00 | 0.00 | 56 | 1015.7 |
| 20260906080049 | 66 | 86 | 0.0 | 0.0 | 0.00 | 0.00 | 0.00 | 58 | 1015.8 |
| 20260906074537 | 0 | 0.0 | 0.0 | 0.00 | 0.00 | 0.00 | 1016.1 | ||
| 20260906071505 | 64 | 75 | 0.0 | 0.0 | 0.00 | 0.00 | 0.00 | 64 | 1016.5 |
| 20260906070002 | 63 | 74 | 0.0 | 0.0 | 0.00 | 0.00 | 0.00 | 65 | 1016.6 |
| 20260906064559 | 62 | 74 | 0.0 | 0.0 | 0.00 | 0.00 | 0.00 | 66 | 1016.8 |
| 20260906063057 | 61 | 74 | 0.0 | 0.0 | 0.00 | 0.00 | 0.00 | 67 | 1016.9 |
| 20260906061554 | 60 | 74 | 0.0 | 0.0 | 0.00 | 0.00 | 0.00 | 69 | 1017.1 |
| 20260906060052 | 59 | 74 | 0.0 | 0.0 | 0.00 | 0.00 | 0.00 | 70 | 1017.0 |
| 20260906054547 | 58 | 74 | 0.0 | 0.0 | 0.00 | 0.00 | 0.00 | 70 | 1016.8 |
| 20260906053045 | 57 | 74 | 0.0 | 0.0 | 0.00 | 0.00 | 0.00 | 70 | 1016.7 |
| 20260906051542 | 57 | 74 | 0.0 | 0.0 | 0.00 | 0.00 | 0.00 | 70 | 1016.3 |
| 20260906050040 | 57 | 74 | 0.0 | 0.0 | 0.00 | 0.00 | 0.00 | 65 | 1016.1 |
| 20260906044542 | 54 | 74 | 0.0 | 0.0 | 0.00 | 0.00 | 0.00 | 67 | 1015.8 |
| 20260906043043 | 52 | 74 | 0.0 | 1.0 | 0.00 | 0.00 | 0.00 | 65 | 1015.5 |
| 20260906041538 | 51 | 74 | 0.0 | 4.0 | 0.00 | 0.00 | 0.00 | 65 | 1015.3 |
| 20260906040035 | 51 | 74 | 0.0 | 2.0 | 0.00 | 0.00 | 0.00 | 67 | 1015.1 |
| 20260906034531 | 50 | 74 | 0.0 | 2.0 | 0.00 | 0.00 | 0.00 | 71 | 1014.8 |
| 20260906033027 | 50 | 74 | 0.0 | 3.0 | 0.00 | 0.00 | 0.00 | 73 | 1014.5 |
| 20260906031541 | 50 | 74 | 0.0 | 2.0 | 0.00 | 0.00 | 0.00 | 76 | 1014.3 |
| 20260906030021 | 50 | 74 | 0.0 | 2.0 | 0.00 | 0.00 | 0.00 | 79 | 1014.1 |
| 20260906024521 | 52 | 74 | 0.0 | 1.0 | 0.00 | 0.00 | 0.00 | 80 | 1013.9 |
| 20260906023020 | 54 | 74 | 0.0 | 1.0 | 0.00 | 0.00 | 0.00 | 78 | 1013.8 |
| 20260906021517 | 55 | 74 | 1.0 | 6.0 | 0.00 | 0.00 | 0.00 | 75 | 1013.4 |
| 20260906020016 | 53 | 92 | 4.0 | 13.0 | 0.00 | 0.00 | 0.00 | 81 | 1013.0 |
| 20260906014513 | 51 | 75 | 1.0 | 4.0 | 0.00 | 0.00 | 0.00 | 86 | 1013.2 |
| 20260906013112 | 50 | 75 | 0.0 | 2.0 | 0.00 | 0.00 | 0.00 | 86 | 1013.1 |
| 20260906011514 | 51 | 75 | 0.0 | 1.0 | 0.00 | 0.00 | 0.00 | 86 | 1012.9 |
| 20260906010007 | 51 | 75 | 0.0 | 0.0 | 0.00 | 0.00 | 0.00 | 85 | 1012.5 |
| 20260906004505 | 51 | 75 | 0.0 | 2.0 | 0.00 | 0.00 | 0.00 | 85 | 1012.3 |
| 20260906003003 | 52 | 75 | 0.0 | 0.0 | 0.00 | 0.00 | 0.00 | 84 | 1012.2 |
| 20260906001612 | 53 | 75 | 0.0 | 1.0 | 0.00 | 0.00 | 0.00 | 83 | 1012.0 |
| 20260906000056 | 54 | 75 | 0.0 | 3.0 | 0.00 | 0.00 | 0.00 | 80 | 1011.6 |
| 20260905234555 | 55 | 75 | 0.0 | 9.0 | 0.00 | 0.00 | 0.00 | 81 | 1011.2 |
| 20260905233105 | 54 | 38 | 1.0 | 12.0 | 0.00 | 0.00 | 0.00 | 85 | 1011.2 |
| 20260905231653 | 55 | 66 | 4.0 | 22.0 | 0.00 | 0.00 | 0.00 | 85 | 1011.0 |
| 20260905230054 | 55 | 90 | 11.0 | 22.0 | 0.00 | 0.00 | 0.00 | 85 | 1010.8 |
| 20260905224558 | 55 | 110 | 10.0 | 26.0 | 0.00 | 0.00 | 0.00 | 84 | 1011.0 |
| 20260905223048 | 55 | 127 | 12.0 | 29.0 | 0.00 | 0.00 | 0.00 | 84 | 1010.9 |
| 20260905221549 | 55 | 133 | 13.0 | 26.0 | 0.00 | 0.00 | 0.00 | 84 | 1011.1 |
| 20260905220043 | 56 | 85 | 9.0 | 26.0 | 0.00 | 0.00 | 0.00 | 84 | 1011.4 |
| 20260905214543 | 56 | 90 | 9.0 | 23.0 | 0.00 | 0.00 | 0.00 | 84 | 1011.7 |
| 20260905213041 | 56 | 34 | 10.0 | 21.0 | 0.00 | 0.00 | 0.00 | 84 | 1012.0 |
| 20260905204552 | 56 | 109 | 16.0 | 30.0 | 0.00 | 0.00 | 0.00 | 83 | 1011.5 |
| 20260905203054 | 56 | 109 | 15.0 | 30.0 | 0.00 | 0.00 | 0.00 | 82 | 1011.8 |
| 20260905201557 | 56 | 101 | 15.0 | 28.0 | 0.00 | 0.00 | 0.00 | 82 | 1012.0 |
| 20260905200100 | 57 | 80 | 14.0 | 35.0 | 0.00 | 0.00 | 0.00 | 81 | 1012.1 |
| 20260905194547 | 57 | 105 | 17.0 | 28.0 | 0.00 | 0.00 | 0.00 | 80 | 1012.4 |